Regional Weather Roundup
Issued by NWS

Home | Current Version | Previous Version | Text Only | Print | Product List | Glossary On
Versions: 1 2 3 4 5 6 7 8 9 10 11 12 13 14 15 16 17 18 19 20 21 22 23 24 25 26 27 28 29 30 31 32 33 34 35 36 37 38 39 40 41 42 43 44 45 46 47 48 49 50
000
ASUS43 KDTX 251601
RWRMI
MICHIGAN HOURLY REGIONAL WEATHER ROUNDUP
NATIONAL WEATHER SERVICE DETROIT/PONTIAC MI
1200 PM EDT SAT MAR 25 2017

NOTE: "FAIR" INDICATES FEW OR NO CLOUDS BELOW 12,000 FEET WITH NO
SIGNIFICANT WEATHER AND/OR OBSTRUCTION TO VISIBILITY.

MIZ047>049-052>055-059>063-066>070-074>076-081>083-251700-
SOUTHEAST LOWER MICHIGAN

CITY           SKY/WX    TMP DP  RH WIND       PRES   REMARKS
ADRIAN         CLOUDY    46  42  86 E14       30.18R
ALMA           LGT RAIN  36  36  99 E13       30.26S WCI  28
ANN ARBOR      CLOUDY    43  40  89 NE13      30.19R
BAD AXE        MIX PCPN  35  33  95 E12G22    30.29R WCI  26
CARO           RAIN      37  36  96 NE9       30.24S WCI  30
DETROIT CITY   CLOUDY    42  42 100 NE12      30.23R
DETROIT        LGT RAIN  44  41  89 NE8       30.22R FOG
FLINT          LGT RAIN  39  37  92 E9        30.24R WCI  33
GROSSE ILE     LGT RAIN  44  41  89 NE12      30.21R
HILLSDALE      LGT RAIN  46  43  87 E10       30.15R
HOWELL         RAIN      38  37  93 NE9       30.21R WCI  32

CITY           SKY/WX    TMP DP  RH WIND       PRES   REMARKS
JACKSON        CLOUDY    42  39  89 NE13      30.18R
LAMBERTVILLE   CLOUDY    47  41  79 E13       30.19R HAZE
LANSING        LGT RAIN  39  35  86 NE14      30.21F WCI  31
LAPEER         DRIZZLE   38  37  98 E8        30.24R WCI  32
MASON          RAIN      38  37  97 NE16      30.18F WCI  29
MONROE         CLOUDY    45  41  88 NE13      30.19S
MT. CLEMENS    LGT RAIN  41  41 100 NE9       30.22F FOG
PONTIAC        LGT RAIN  39  37  92 NE9       30.21F WCI  33
PORT HOPE        N/A     34  32  92 NE20      30.30R WCI  23
TRI CITIES     LGT RAIN  36  36 100 NE18      30.26S FOG     WCI  26
MIDLAND        MIX PCPN  36  34  91 NE17G29   30.25F WCI  26
TROY           LGT RAIN  40  38  93 NE13      30.24R WCI  33
SAGINAW HB     DRIZZLE   37  34  87 NE14      30.26R WCI  29
$$
MIZ043>046-050>051-056>058-064>065-071>073-077>080-251700-
SOUTHWEST LOWER MICHIGAN

CITY           SKY/WX    TMP DP  RH WIND       PRES   REMARKS
BATTLE CREEK   LGT RAIN  40  39  97 NE14      30.17R WCI  32
BENTON HARBOR  CLOUDY    47  44  90 E15G23    30.06F
BIG RAPIDS     CLOUDY    36  33  89 E9        30.21R WCI  29
COLDWATER      LGT RAIN  47  46  93 E9        30.13S
FREMONT        LGT RAIN  37  35  92 E13G20    30.19S WCI  29
HOLLAND        LGT RAIN  39  36  89 E17G28    30.15S WCI  30
GRAND RAPIDS   LGT RAIN  38  32  79 E17G26    30.19S WCI  28
IONIA          LGT RAIN  37  35  95 NE17      30.18F WCI  27
KALAMAZOO      CLOUDY    43  39  86 E8        30.15S
LUDINGTON      CLOUDY    40  36  87 E15G22    30.17F WCI  31
MARSHALL       CLOUDY    41  40  98 NE3       30.17R
MOUNT PLEASANT RAIN      36  34  92 E14G24    30.25R WCI  27
MUSKEGON       LGT RAIN  40  37  89 E16G26    30.16F WCI  31
SOUTH HAVEN    DRIZZLE   42  41  97 E13G22    30.07F
$$
MIZ016>042-251700-
NORTHERN LOWER MICHIGAN

CITY           SKY/WX    TMP DP  RH WIND       PRES   REMARKS
ALPENA         CLOUDY    34  31  88 E15       30.37R WCI  24
BEAVER ISLAND  CLOUDY    34  30  87 E14G20    30.33F WCI  24
BELLAIRE       CLOUDY    37  32  83 NE10G17   30.30F WCI  29
CADILLAC       CLOUDY    35  33  91 E16G22    30.21F WCI  26
CHARLEVOIX     CLOUDY    36  32  86 E16       30.34F WCI  26
FRANKFORT      CLOUDY    38  32  79 E13       30.24F WCI  30
GAYLORD        CLOUDY    34  28  79 E8G18     30.29S WCI  27
GRAYLING       CLOUDY    34  32  93 E14G22    30.29S WCI  24
HARBOR SPRINGS LGT SNOW  34  31  89 E15G25    30.33S WCI  24
HOUGHTON LAKE  CLOUDY    34  32  92 E20       30.27F WCI  23
MANISTEE       CLOUDY    42  35  76 E16G22    30.20F
OSCODA         CLOUDY    34  32  92 NE15G21   30.34R WCI  24
PELLSTON       CLOUDY    34  28  79 E9        30.35S WCI  27
ROGERS CITY    CLOUDY    33  29  86 E12G18      N/A  WCI  24
TRAVERSE CITY  CLOUDY    38  33  82 E14       30.27S WCI  30
$$
MIZ007>008-015-251700-
EASTERN UPPER MICHIGAN

CITY           SKY/WX    TMP DP  RH WIND       PRES   REMARKS
KINROSS        CLOUDY    34  24  67 E9        30.38R WCI  27
MACKINAC ISLAN CLOUDY    31  29  93 E15G22    30.37R WCI  20
NEWBERRY       CLOUDY    35  30  81 E7        30.35R WCI  29
S. S. MARIE    SUNNY     34  23  64 NE7       30.38R WCI  28
MUNISING         N/A     34  30  85 NE7       30.34S WCI  28
$$
MIZ004>006-011>014-085-251700-
CENTRAL UPPER MICHIGAN

CITY           SKY/WX    TMP DP  RH WIND       PRES   REMARKS
MANISTIQUE     CLOUDY    36  32  87 E13G18    30.34S WCI  27
ESCANABA       CLOUDY    35  31  85 E14       30.33S WCI  26
MENOMINEE        N/A    N/A N/A N/A MISG        N/A
SAWYER-GWINN   CLOUDY    32  30  93 NE5       30.31S WCI  27
$$
MIZ001>003-009>011-084-251700-
WESTERN UPPER MICHIGAN

CITY           SKY/WX    TMP DP  RH WIND       PRES   REMARKS
IRON MOUNTAIN  CLOUDY    36  29  75 SE9       30.27F WCI  29
HOUGHTON       CLOUDY    31  24  75 E12       30.34S WCI  22
COPPER HARBOR    N/A     31  23  72 SE7G16    30.38S WCI  24
IRONWOOD       CLOUDY    34  29  82 E12       30.28S WCI  25
$$

ABBREVIATIONS USED IN REMARKS
   TC - TEMPERATURE IN CELSIUS
  WCI - WIND CHILL INDEX
   HX - HEAT INDEX
  VSB - VISIBILITY





USA.gov is the U.S. government's official web portal to all federal, state and local government web resources and services.